User: anonymous   Login
Location: Berg
(47.2344°N, 9.5296°E)
Time: 12:57:55
(UTC+00:00)
Language:

NANOSAT C BR1 - Orbit

View from above orbital plane
View from above orbital plane
View from above satellite
View from above satellite

Ground track
Ground track

The orbit data is extracted from the following two-line orbital elements,

1 40024U 14033Q   21339.81647418  .00000848  00000-0  92227-4 0  9994
2 40024  97.9666 276.3062 0011466 332.3735  27.6872 14.90723940405128
Epoch (UTC): 05 December 2021 19:35:43
Eccentricity: 0.0011466
inclination: 97.9666°
perigee height: 587 km
apogee height: 603 km
right ascension of ascending node: 276.3062°
argument of perigee: 332.3735°
revolutions per day: 14.90723940
mean anomaly at epoch: 27.6872°
orbit number at epoch: 40512

The dashed part of the orbit path shows where the satellite is in the earth's shadow,  

DLR